Simultaneous Nadir Overpasses (SNOs) Predictions

Prediction of SNOs between NOAA-19 and NPP Satellite Orbit:

Table of predicted SNOs for the next 14.0 days since TLE Epoch: 11/6/2015
Index Date (NOAA-19) Time (NOAA-19) Lat,Lon (NOAA-19) SZA (NOAA-19 ) Date (NPP) Time (NPP) Lat,Lon (NPP) SZA (NPP ) Distance(km) Time Diff (sec)
1 11/19/2015 15:43:58 81.04,-108.98 103.48 11/19/2015 15:44:59 81.03,-108.93 103.44 1.07 61
2 11/19/2015 16:34:59 -81.04, 58.36 76.53 11/19/2015 16:35:45 -81.04, 58.17 76.53 3.22 46
3 11/19/2015 17:26:00 81.04,-134.34 103.48 11/19/2015 17:26:29 81.03,-134.35 103.46 0.47 29
4 11/19/2015 18:17:01 -81.04, 32.62 76.48 11/19/2015 18:17:14 -81.04, 32.76 76.50 2.36 13
5 11/19/2015 19:08:01 81.04,-159.70 103.48 11/19/2015 19:07:58 81.03,-159.76 103.49 1.06 3
6 11/19/2015
